Hourly Data Report for April 05, 2004

SHERBROOKE A
QUEBEC

45°26'00.000" N
71°41'00.000" W
241.40 m
7028124
71610
YSC

Download Data

Hourly Data (April 2004)
Hourly Data Report for April 5, 2004
TIME
LST
Temp Definition
°C
Dew Point Definition
°C
Rel Hum Definition
%
Precip. Amount Definition
mm

Wind Dir Definition
10's deg

Wind Spd Definition
km/h
Visibility Definition
km
Stn Press Definition
kPa
Hmdx Definition


Wind Chill Definition


Weather Definition


00:00 -3.8 -5.7 87   32 13 0.6 96.87   -9 Snow
01:00 -4.8 -6.6 87   30 15 0.6 96.86   -10 Snow
02:00 -5.5 -7.2 88   29 15 1.1 96.89   -11 Snow
03:00 -6.2 -8.4 84   30 17 1.6 96.90   -12 Snow
04:00 -6.7 -8.9 84   30 20 2.3 96.89   -14 Snow
05:00 -7.1 -9.2 85   30 22 1.8 96.93   -15 Snow
06:00 -7.2 -9.6 83   29 20 2.9 97.05   -14 Snow
07:00 -7.7 -10.2 82   30 20 2.4 97.10   -15 Snow
08:00 -7.8 -9.9 85   28 19 1.6 97.09   -15 Snow
09:00 -7.9 -10.4 82   29 26 2.4 97.11   -16 Snow,Blowing Snow
10:00 -7.8 -10.8 79   28 28 2.4 97.10   -16 Snow,Blowing Snow
11:00 -7.9 -11.0 78   29 28 1.6 97.13   -17 Snow,Blowing Snow
12:00 -7.9 -10.6 81   28 24 1.6 97.10   -16 Snow,Blowing Snow
13:00 -7.1 -10.3 78   28 30 2.4 97.08   -16 Snow,Blowing Snow
14:00 -6.7 -9.9 78   27 26 1.6 97.07   -15 Snow,Blowing Snow
15:00 -6.0 -9.0 79   27 22 4.0 97.06   -13 Snow,Blowing Snow
16:00 -5.1 -7.5 83   26 22 1.6 97.04   -12 Snow,Blowing Snow
17:00 -4.2 -6.1 87   25 17 1.3 97.08   -10 Snow
18:00 -3.3 -5.5 85   29 32 1.6 97.12   -11 Snow
19:00 -3.8 -5.5 88   30 17 1.6 97.17   -10 Snow
20:00 -3.6 -5.7 85   30 26 1.9 97.23   -11 Snow
21:00 -3.9 -5.7 87   29 28 1.6 97.25   -11 Snow
22:00 -4.5 -6.7 85   29 33 2.4 97.23   -13 Snow
23:00 -5.0 -7.5 83   29 26 11.3 97.25   -12 Snow

Notes on Data Quality.

Legend

  • E = Estimated
  • M = Missing
  • NA = Not Available*
  • [empty] = Indicates an unobserved value
Date modified: